2015-09-20, 07:25:04,VALID,918.356,VALID,0,VALID,80.0382,VALID,89.9282,VALID,21.9266,VALID,99,VALID,2.12734,
2015-09-20, 07:26:04,VALID,918.365,VALID,0,VALID,80.0001,VALID,98.2012,VALID,21.9851,VALID,93,VALID,1.18555,
2015-09-20, 07:27:04,VALID,918.384,VALID,0,VALID,80.0764,VALID,105.722,VALID,22.0242,VALID,89,VALID,1.24805,
2015-09-20, 07:28:04,VALID,918.415,VALID,0,VALID,79.7333,VALID,108.73,VALID,22.0615,VALID,89,VALID,0.257813,
2015-09-20, 07:29:04,VALID,918.449,VALID,0,VALID,79.6266,VALID,112.061,VALID,22.081,VALID,100,VALID,1.29688,
2015-09-20, 07:30:04,VALID,918.473,VALID,0,VALID,79.5503,VALID,115.284,VALID,22.1591,VALID,90,VALID,1.44961,
2015-09-20, 07:31:04,VALID,918.47,VALID,0,VALID,79.3979,VALID,110.45,VALID,22.1998,VALID,85,VALID,1.62734,
2015-09-20, 07:32:04,VALID,918.472,VALID,0,VALID,77.2404,VALID,108.623,VALID,22.2371,VALID,117,VALID,1.81523,
2015-09-20, 07:33:04,VALID,918.513,VALID,0,VALID,77.0804,VALID,107.549,VALID,22.3347,VALID,94,VALID,1.94805,
2015-09-20, 07:34:04,VALID,918.485,VALID,0,VALID,78.079,VALID,100.887,VALID,22.3737,VALID,60,VALID,1.25273,
2015-09-20, 07:35:04,VALID,918.502,VALID,0,VALID,78.8033,VALID,100.35,VALID,22.3542,VALID,72,VALID,0,
2015-09-20, 07:36:04,VALID,918.529,VALID,0,VALID,78.3077,VALID,100.028,VALID,22.3754,VALID,88,VALID,1.69883,
2015-09-20, 07:37:04,VALID,918.528,VALID,0,VALID,78.445,VALID,99.8128,VALID,22.3347,VALID,99,VALID,1.40586,
2015-09-20, 07:38:04,VALID,918.542,VALID,0,VALID,78.6355,VALID,105.292,VALID,22.3347,VALID,115,VALID,0,
2015-09-20, 07:39:04,VALID,918.533,VALID,0,VALID,78.8414,VALID,106.904,VALID,22.3542,VALID,100,VALID,0,
2015-09-20, 07:40:04,VALID,918.533,VALID,0,VALID,79.619,VALID,118.293,VALID,22.3542,VALID,98,VALID,0.370703,
2015-09-20, 07:41:04,VALID,918.607,VALID,0,VALID,79.2835,VALID,139.996,VALID,22.3542,VALID,123,VALID,0,
2015-09-20, 07:42:04,VALID,918.59,VALID,0,VALID,79.7867,VALID,138.169,VALID,22.3152,VALID,83,VALID,0.423438,
2015-09-20, 07:43:04,VALID,918.623,VALID,0,VALID,78.018,VALID,136.665,VALID,22.3364,VALID,109,VALID,1.94336,
2015-09-20, 07:44:04,VALID,918.636,VALID,0,VALID,78.0943,VALID,136.88,VALID,22.3542,VALID,111,VALID,0,
2015-09-20, 07:45:04,VALID,918.629,VALID,0,VALID,78.666,VALID,132.797,VALID,22.3933,VALID,90,VALID,0.046875,
2015-09-20, 07:46:04,VALID,918.617,VALID,0,VALID,78.5898,VALID,129.144,VALID,22.3933,VALID,97,VALID,1.90234,
2015-09-20, 07:47:04,VALID,918.633,VALID,0,VALID,79.2835,VALID,127.533,VALID,22.3737,VALID,104,VALID,0,
2015-09-20, 07:48:04,VALID,918.65,VALID,0,VALID,78.9938,VALID,151.707,VALID,22.3542,VALID,119,VALID,1.23477,
2015-09-20, 07:49:04,VALID,918.663,VALID,0,VALID,78.9938,VALID,163.525,VALID,22.3933,VALID,98,VALID,0.04375,
2015-09-20, 07:50:04,VALID,918.643,VALID,0,VALID,78.8033,VALID,170.402,VALID,22.372,VALID,120,VALID,0.429688,
2015-09-20, 07:51:04,VALID,918.651,VALID,0,VALID,79.6266,VALID,161.377,VALID,22.4713,VALID,72,VALID,0.0417969,
2015-09-20, 07:52:04,VALID,918.675,VALID,0,VALID,78.5974,VALID,150.847,VALID,22.4696,VALID,128,VALID,1.60195,
2015-09-20, 07:53:04,VALID,918.641,VALID,0,VALID,78.6889,VALID,177.17,VALID,22.5103,VALID,92,VALID,1.51289,
2015-09-20, 07:54:04,VALID,918.657,VALID,0,VALID,79.0243,VALID,170.724,VALID,22.5689,VALID,87,VALID,0.496094,
2015-09-20, 07:55:04,VALID,918.655,VALID,0,VALID,78.8033,VALID,178.675,VALID,22.5494,VALID,66,VALID,2.01406,
2015-09-20, 07:56:04,VALID,918.664,VALID,0,VALID,79.0167,VALID,192.535,VALID,22.6096,VALID,82,VALID,1.31602,
2015-09-20, 07:57:04,VALID,918.634,VALID,0,VALID,79.8172,VALID,184.584,VALID,22.6274,VALID,50,VALID,1.02891,
2015-09-20, 07:58:04,VALID,918.672,VALID,0,VALID,78.2925,VALID,176.848,VALID,22.6877,VALID,59,VALID,2.68398,
2015-09-20, 07:59:04,VALID,918.724,VALID,0,VALID,78.0485,VALID,185.551,VALID,22.7267,VALID,114,VALID,2.0375,
2015-09-20, 08:00:04,VALID,918.795,VALID,0,VALID,78.0333,VALID,178.46,VALID,22.7267,VALID,106,VALID,1.27305,
2015-09-20, 08:01:04,VALID,918.771,VALID,0,VALID,79.032,VALID,180.931,VALID,22.7641,VALID,133,VALID,0,
2015-09-20, 08:02:04,VALID,918.783,VALID,0,VALID,78.2925,VALID,201.237,VALID,22.7836,VALID,86,VALID,1.03867,
2015-09-20, 08:03:04,VALID,918.786,VALID,0,VALID,78.9176,VALID,165.137,VALID,22.7836,VALID,111,VALID,0,
2015-09-20, 08:04:04,VALID,918.788,VALID,0,VALID,78.4907,VALID,207.576,VALID,22.7836,VALID,128,VALID,0,
2015-09-20, 08:05:04,VALID,918.772,VALID,0,VALID,78.018,VALID,183.295,VALID,22.8048,VALID,104,VALID,0.456641,
2015-09-20, 08:06:04,VALID,918.774,VALID,0,VALID,77.8961,VALID,202.204,VALID,22.8226,VALID,98,VALID,0.922266,
2015-09-20, 08:07:04,VALID,918.765,VALID,0,VALID,78.2925,VALID,257.966,VALID,22.8421,VALID,89,VALID,0,
2015-09-20, 08:08:04,VALID,918.758,VALID,0,VALID,78.2925,VALID,261.404,VALID,22.9202,VALID,118,VALID,0,
2015-09-20, 08:09:04,VALID,918.779,VALID,0,VALID,77.1109,VALID,252.916,VALID,22.9805,VALID,112,VALID,2.07734,
2015-09-20, 08:10:04,VALID,918.77,VALID,0,VALID,77.7512,VALID,245.181,VALID,23.0568,VALID,81,VALID,1.375,
2015-09-20, 08:11:04,VALID,918.788,VALID,0,VALID,77.4615,VALID,249.801,VALID,23.1154,VALID,119,VALID,1.17305,
2015-09-20, 08:12:04,VALID,918.803,VALID,0,VALID,76.9203,VALID,236.156,VALID,23.1349,VALID,91,VALID,1.78867,
2015-09-20, 08:13:04,VALID,918.807,VALID,0,VALID,78.4754,VALID,207.899,VALID,23.213,VALID,87,VALID,0.707812,
2015-09-20, 08:14:04,VALID,918.855,VALID,0,VALID,76.7525,VALID,197.155,VALID,23.2325,VALID,87,VALID,1.82539,
2015-09-20, 08:15:04,VALID,918.815,VALID,0,VALID,76.2494,VALID,185.229,VALID,23.2502,VALID,114,VALID,0.366016,
2015-09-20, 08:16:04,VALID,918.811,VALID,0,VALID,76.0969,VALID,184.476,VALID,23.2502,VALID,63,VALID,0.963672,
2015-09-20, 08:17:04,VALID,918.802,VALID,0,VALID,76.5848,VALID,170.939,VALID,23.2112,VALID,58,VALID,1.09492,
2015-09-20, 08:18:04,VALID,918.806,VALID,0,VALID,77.088,VALID,169.864,VALID,23.1722,VALID,84,VALID,0,
2015-09-20, 08:19:04,VALID,918.829,VALID,0,VALID,77.4996,VALID,182.543,VALID,23.1331,VALID,110,VALID,0.0125,
2015-09-20, 08:20:04,VALID,918.83,VALID,0,VALID,77.4539,VALID,218.535,VALID,23.1739,VALID,119,VALID,0.865625,
2015-09-20, 08:21:04,VALID,918.824,VALID,0,VALID,76.9584,VALID,325.332,VALID,23.213,VALID,111,VALID,0.605078,
2015-09-20, 08:22:04,VALID,918.803,VALID,0,VALID,76.0359,VALID,339.729,VALID,23.2307,VALID,121,VALID,0.275781,
2015-09-20, 08:23:04,VALID,918.836,VALID,0,VALID,77.3853,VALID,330.704,VALID,23.4082,VALID,59,VALID,0.0609375,
2015-09-20, 08:24:04,VALID,918.796,VALID,0,VALID,75.0297,VALID,228.42,VALID,23.5235,VALID,90,VALID,0.375781,
2015-09-20, 08:25:04,VALID,918.803,VALID,0,VALID,75.2965,VALID,335.646,VALID,23.5626,VALID,114,VALID,0.309766,
2015-09-20, 08:26:04,VALID,918.785,VALID,0,VALID,75.4642,VALID,315.984,VALID,23.5998,VALID,130,VALID,0.679297,
2015-09-20, 08:27:04,VALID,918.799,VALID,0,VALID,74.8696,VALID,250.445,VALID,23.6992,VALID,115,VALID,0.258203,
2015-09-20, 08:28:04,VALID,918.801,VALID,0,VALID,74.2826,VALID,350.58,VALID,23.7382,VALID,119,VALID,0,
2015-09-20, 08:29:04,VALID,918.826,VALID,0,VALID,74.9306,VALID,294.604,VALID,23.7968,VALID,108,VALID,0.0078125,
2015-09-20, 08:30:04,VALID,918.808,VALID,0,VALID,72.8494,VALID,324.257,VALID,23.8163,VALID,125,VALID,2.40703,
2015-09-20, 08:31:04,VALID,918.808,VALID,0,VALID,72.1861,VALID,384.532,VALID,23.8377,VALID,100,VALID,0.994531,
2015-09-20, 08:32:04,VALID,918.784,VALID,0,VALID,71.7821,VALID,395.276,VALID,23.8944,VALID,134,VALID,0.0078125,
2015-09-20, 08:33:04,VALID,918.763,VALID,0,VALID,72.1633,VALID,375.077,VALID,24.0097,VALID,100,VALID,0,
2015-09-20, 08:34:04,VALID,918.782,VALID,0,VALID,71.9041,VALID,351.762,VALID,24.0701,VALID,114,VALID,1.9625,
2015-09-20, 08:35:04,VALID,918.74,VALID,0,VALID,69.1139,VALID,294.281,VALID,23.9902,VALID,146,VALID,2.10039,
2015-09-20, 08:36:04,VALID,918.747,VALID,0,VALID,71.2408,VALID,340.374,VALID,24.0506,VALID,104,VALID,0.0144531,
2015-09-20, 08:37:04,VALID,918.752,VALID,0,VALID,72.1251,VALID,318.026,VALID,24.0506,VALID,92,VALID,1.84687,
2015-09-20, 08:38:04,VALID,918.714,VALID,0,VALID,73.0628,VALID,176.633,VALID,23.9902,VALID,79,VALID,1.62734,
2015-09-20, 08:39:04,VALID,918.726,VALID,0,VALID,72.857,VALID,168.145,VALID,23.8749,VALID,100,VALID,2.01797,
2015-09-20, 08:40:04,VALID,918.742,VALID,0,VALID,72.7198,VALID,190.171,VALID,23.7169,VALID,115,VALID,1.61328,
2015-09-20, 08:41:04,VALID,918.698,VALID,0,VALID,73.7032,VALID,235.511,VALID,23.5998,VALID,122,VALID,0.707031,
2015-09-20, 08:42:04,VALID,918.649,VALID,0,VALID,75.2736,VALID,218.32,VALID,23.6016,VALID,80,VALID,0.830859,
2015-09-20, 08:43:04,VALID,918.679,VALID,0,VALID,75.1974,VALID,219.717,VALID,23.5821,VALID,78,VALID,1.13828,
2015-09-20, 08:44:04,VALID,918.718,VALID,0,VALID,74.0615,VALID,400.003,VALID,23.5626,VALID,87,VALID,2.46914,
2015-09-20, 08:45:04,VALID,918.699,VALID,0,VALID,74.9534,VALID,387.863,VALID,23.5803,VALID,47,VALID,1.85977,
2015-09-20, 08:46:04,VALID,918.671,VALID,0,VALID,73.0018,VALID,433.203,VALID,23.6584,VALID,82,VALID,1.77109,
2015-09-20, 08:47:04,VALID,918.684,VALID,0,VALID,73.5965,VALID,403.764,VALID,23.8163,VALID,44,VALID,1.61797,
2015-09-20, 08:48:04,VALID,918.695,VALID,0,VALID,72.3462,VALID,401.078,VALID,23.8944,VALID,69,VALID,0.866016,
2015-09-20, 08:49:04,VALID,918.696,VALID,0,VALID,72.4301,VALID,388.4,VALID,23.9725,VALID,113,VALID,0.701172,
2015-09-20, 08:50:04,VALID,918.704,VALID,0,VALID,72.7655,VALID,424.93,VALID,24.0701,VALID,99,VALID,0.0308594,
2015-09-20, 08:51:04,VALID,918.669,VALID,0,VALID,71.5229,VALID,437.715,VALID,24.1287,VALID,54,VALID,1.08047,
2015-09-20, 08:52:04,VALID,918.704,VALID,0,VALID,69.8915,VALID,379.16,VALID,24.2068,VALID,118,VALID,0.0167969,
2015-09-20, 08:53:04,VALID,918.706,VALID,0,VALID,69.8762,VALID,451.897,VALID,24.2654,VALID,80,VALID,1.87891,
2015-09-20, 08:54:04,VALID,918.735,VALID,0,VALID,70.0058,VALID,461.46,VALID,24.2458,VALID,99,VALID,0.0121094,
2015-09-20, 08:55:04,VALID,918.775,VALID,0,VALID,69.7009,VALID,435.244,VALID,24.3825,VALID,113,VALID,0,
2015-09-20, 08:56:04,VALID,918.791,VALID,0,VALID,69.3731,VALID,419.128,VALID,24.4801,VALID,97,VALID,0.200391,
2015-09-20, 08:57:04,VALID,918.739,VALID,0,VALID,69.617,VALID,455.336,VALID,24.5387,VALID,56,VALID,1.325,
2015-09-20, 08:58:04,VALID,918.77,VALID,0,VALID,69.678,VALID,462.856,VALID,24.5387,VALID,136,VALID,0.383984,
2015-09-20, 08:59:04,VALID,918.818,VALID,0,VALID,69.7924,VALID,382.383,VALID,24.5973,VALID,101,VALID,1.32891,
2015-09-20, 09:00:04,VALID,918.8,VALID,0,VALID,68.9614,VALID,458.451,VALID,24.5368,VALID,102,VALID,1.15195,
2015-09-20, 09:01:04,VALID,918.779,VALID,0,VALID,69.1139,VALID,478.435,VALID,24.5564,VALID,55,VALID,1.86172,
2015-09-20, 09:02:04,VALID,918.87,VALID,0,VALID,69.9067,VALID,484.667,VALID,24.6754,VALID,81,VALID,1.86328,
2015-09-20, 09:03:04,VALID,918.844,VALID,0,VALID,70.6462,VALID,492.618,VALID,24.6345,VALID,96,VALID,1.07461,
2015-09-20, 09:04:04,VALID,918.821,VALID,0,VALID,68.6565,VALID,483.7,VALID,24.654,VALID,45,VALID,0.481641,
2015-09-20, 09:05:04,VALID,918.904,VALID,0,VALID,69.7771,VALID,439.112,VALID,24.7321,VALID,128,VALID,0.780078,
2015-09-20, 09:06:04,VALID,918.954,VALID,0,VALID,68.6336,VALID,484.345,VALID,24.7321,VALID,91,VALID,1.51641,
2015-09-20, 09:07:04,VALID,918.933,VALID,0,VALID,65.8892,VALID,359.928,VALID,24.7497,VALID,133,VALID,1.00664,
2015-09-20, 09:08:04,VALID,918.932,VALID,0,VALID,67.6045,VALID,516.04,VALID,24.693,VALID,77,VALID,0.980469,
2015-09-20, 09:09:04,VALID,918.934,VALID,0,VALID,69.6475,VALID,515.932,VALID,24.7126,VALID,79,VALID,0.614844,
2015-09-20, 09:10:04,VALID,918.951,VALID,0,VALID,68.5345,VALID,492.403,VALID,24.7321,VALID,97,VALID,0,
2015-09-20, 09:11:04,VALID,918.943,VALID,0,VALID,68.7861,VALID,517.437,VALID,24.8297,VALID,103,VALID,2.41367,
2015-09-20, 09:12:04,VALID,918.957,VALID,0,VALID,69.3197,VALID,492.833,VALID,24.7888,VALID,127,VALID,1.13477,
2015-09-20, 09:13:04,VALID,918.955,VALID,0,VALID,69.8457,VALID,425.252,VALID,24.9059,VALID,43,VALID,2.75703,
2015-09-20, 09:14:04,VALID,918.973,VALID,0,VALID,70.1202,VALID,542.578,VALID,25.0445,VALID,109,VALID,0.504297,
2015-09-20, 09:15:04,VALID,918.925,VALID,0,VALID,67.3834,VALID,467.262,VALID,24.984,VALID,72,VALID,1.33555,
2015-09-20, 09:16:04,VALID,918.972,VALID,0,VALID,67.5435,VALID,337.365,VALID,25.0817,VALID,171,VALID,0.00195313,
2015-09-20, 09:17:04,VALID,918.992,VALID,0,VALID,65.9426,VALID,275.264,VALID,25.1988,VALID,149,VALID,1.35352,
2015-09-20, 09:18:04,VALID,919.059,VALID,0,VALID,65.973,VALID,521.304,VALID,25.064,VALID,66,VALID,1.89063,
2015-09-20, 09:19:04,VALID,919.028,VALID,0,VALID,68.8852,VALID,336.291,VALID,24.9878,VALID,95,VALID,1.18008,
2015-09-20, 09:20:04,VALID,919.068,VALID,0,VALID,68.626,VALID,594.794,VALID,24.9469,VALID,58,VALID,1.46953,
2015-09-20, 09:21:04,VALID,919.071,VALID,0,VALID,68.6641,VALID,585.447,VALID,24.9859,VALID,68,VALID,2.69531,
2015-09-20, 09:22:04,VALID,919.128,VALID,0,VALID,70.0363,VALID,577.819,VALID,25.0055,VALID,65,VALID,1.63984,
2015-09-20, 09:23:04,VALID,919.075,VALID,0,VALID,67.6197,VALID,543.545,VALID,24.9469,VALID,46,VALID,2.37891,
2015-09-20, 09:24:04,VALID,919.084,VALID,0,VALID,69.3655,VALID,549.561,VALID,24.9878,VALID,70,VALID,2.45078,
2015-09-20, 09:25:04,VALID,919.141,VALID,0,VALID,67.1928,VALID,488.32,VALID,24.9645,VALID,71,VALID,0.665625,
2015-09-20, 09:26:04,VALID,919.145,VALID,0,VALID,66.7659,VALID,571.694,VALID,24.9645,VALID,116,VALID,2.22422,
2015-09-20, 09:27:04,VALID,919.162,VALID,0,VALID,68.2906,VALID,585.125,VALID,24.9255,VALID,89,VALID,2.20742,
2015-09-20, 09:28:04,VALID,919.183,VALID,0,VALID,66.0798,VALID,571.157,VALID,24.8864,VALID,74,VALID,3.03828,
2015-09-20, 09:29:04,VALID,919.198,VALID,0,VALID,68.3058,VALID,568.256,VALID,24.8474,VALID,83,VALID,0.697266,
2015-09-20, 09:30:04,VALID,919.186,VALID,0,VALID,68.9843,VALID,582.546,VALID,25.025,VALID,67,VALID,1.95938,
2015-09-20, 09:31:04,VALID,919.2,VALID,0,VALID,66.804,VALID,573.521,VALID,25.1207,VALID,54,VALID,2.18711,
2015-09-20, 09:32:04,VALID,919.287,VALID,0,VALID,65.7977,VALID,585.125,VALID,25.1031,VALID,124,VALID,2.41172,
2015-09-20, 09:33:04,VALID,919.289,VALID,0,VALID,67.4291,VALID,583.298,VALID,24.984,VALID,139,VALID,0.343359,
2015-09-20, 09:34:04,VALID,919.326,VALID,0,VALID,67.5892,VALID,595.869,VALID,24.9255,VALID,131,VALID,1.81875,
2015-09-20, 09:35:04,VALID,919.326,VALID,0,VALID,69.3426,VALID,547.842,VALID,25.0836,VALID,45,VALID,0.675391,
2015-09-20, 09:36:04,VALID,919.297,VALID,0,VALID,63.4954,VALID,418.268,VALID,25.2398,VALID,70,VALID,2.90469,
2015-09-20, 09:37:04,VALID,919.325,VALID,0,VALID,64.1815,VALID,582.116,VALID,25.1012,VALID,132,VALID,0.117969,
2015-09-20, 09:38:04,VALID,919.334,VALID,0,VALID,66.7964,VALID,589.207,VALID,25.1422,VALID,30,VALID,3.06406,
2015-09-20, 09:39:04,VALID,919.432,VALID,0,VALID,63.8766,VALID,605.431,VALID,25.1598,VALID,62,VALID,3.7543,
2015-09-20, 09:40:04,VALID,919.331,VALID,0,VALID,63.9757,VALID,609.084,VALID,25.1402,VALID,286,VALID,0,
2015-09-20, 09:41:04,VALID,919.376,VALID,0,VALID,65.7062,VALID,611.34,VALID,25.2788,VALID,48,VALID,2.88906,
2015-09-20, 09:42:04,VALID,919.383,VALID,0,VALID,65.6147,VALID,578.785,VALID,25.316,VALID,88,VALID,1.11719,
2015-09-20, 09:43:04,VALID,919.378,VALID,0,VALID,66.7278,VALID,567.934,VALID,25.4331,VALID,119,VALID,1.35195,
2015-09-20, 09:44:04,VALID,919.406,VALID,0,VALID,64.9363,VALID,470.7,VALID,25.3746,VALID,130,VALID,0.142578,
2015-09-20, 09:45:04,VALID,919.401,VALID,0,VALID,66.2704,VALID,635.085,VALID,25.5113,VALID,101,VALID,1.75234,
2015-09-20, 09:46:04,VALID,919.387,VALID,0,VALID,65.0964,VALID,643.358,VALID,25.5308,VALID,125,VALID,0.369531,
2015-09-20, 09:47:04,VALID,919.342,VALID,0,VALID,64.6999,VALID,629.927,VALID,25.5698,VALID,171,VALID,2.30039,
2015-09-20, 09:48:04,VALID,919.325,VALID,0,VALID,62.9465,VALID,597.588,VALID,25.8042,VALID,175,VALID,0.0617188,
2015-09-20, 09:49:04,VALID,919.362,VALID,0,VALID,64.3188,VALID,534.735,VALID,25.8042,VALID,99,VALID,2.06992,
2015-09-20, 09:50:04,VALID,919.342,VALID,0,VALID,63.2057,VALID,444.914,VALID,25.8433,VALID,139,VALID,0.640234,
2015-09-20, 09:51:04,VALID,919.395,VALID,0,VALID,63.6479,VALID,606.29,VALID,25.9604,VALID,73,VALID,1.82969,
2015-09-20, 09:52:04,VALID,919.438,VALID,0,VALID,63.7394,VALID,580.612,VALID,25.9214,VALID,59,VALID,3.02539,
2015-09-20, 09:53:04,VALID,919.442,VALID,0,VALID,64.7304,VALID,651.308,VALID,25.7827,VALID,93,VALID,2.97383,
2015-09-20, 09:54:04,VALID,919.428,VALID,0,VALID,63.0228,VALID,548.917,VALID,25.6284,VALID,93,VALID,2.03867,
2015-09-20, 09:55:04,VALID,919.454,VALID,0,VALID,63.686,VALID,616.712,VALID,25.4722,VALID,133,VALID,0.656641,
2015-09-20, 09:56:04,VALID,919.407,VALID,0,VALID,66.6973,VALID,454.369,VALID,25.5289,VALID,66,VALID,3.20547,
2015-09-20, 09:57:04,VALID,919.461,VALID,0,VALID,62.6492,VALID,340.266,VALID,25.4136,VALID,62,VALID,2.05312,
2015-09-20, 09:58:04,VALID,919.436,VALID,0,VALID,63.6479,VALID,483.7,VALID,25.3355,VALID,59,VALID,3.60742,
2015-09-20, 09:59:04,VALID,919.454,VALID,0,VALID,64.4789,VALID,272.041,VALID,25.2379,VALID,96,VALID,1.68477,
2015-09-20, 10:00:04,VALID,919.442,VALID,0,VALID,65.6376,VALID,283.107,VALID,25.1774,VALID,111,VALID,0.114063,
2015-09-20, 10:01:04,VALID,919.432,VALID,0,VALID,65.8587,VALID,315.34,VALID,25.2164,VALID,105,VALID,1.61563,
2015-09-20, 10:02:04,VALID,919.433,VALID,0,VALID,65.4623,VALID,433.203,VALID,25.2769,VALID,142,VALID,1.55234,
2015-09-20, 10:03:04,VALID,919.413,VALID,0,VALID,64.4179,VALID,587.381,VALID,25.2555,VALID,90,VALID,2.36406,
2015-09-20, 10:04:04,VALID,919.376,VALID,0,VALID,67.1013,VALID,779.7,VALID,25.316,VALID,67,VALID,2.0125,
2015-09-20, 10:05:04,VALID,919.411,VALID,0,VALID,63.4802,VALID,738.228,VALID,25.3726,VALID,132,VALID,2.08359,
2015-09-20, 10:06:04,VALID,919.377,VALID,0,VALID,65.9197,VALID,756.708,VALID,25.5503,VALID,57,VALID,1.43164,
2015-09-20, 10:07:04,VALID,919.378,VALID,0,VALID,65.2564,VALID,723.616,VALID,25.8237,VALID,56,VALID,2.26563,
2015-09-20, 10:08:04,VALID,919.35,VALID,0,VALID,64.5093,VALID,767.989,VALID,26.0581,VALID,41,VALID,1.31523,
2015-09-20, 10:09:04,VALID,919.334,VALID,0,VALID,61.3075,VALID,754.022,VALID,26.31,VALID,135,VALID,0,
2015-09-20, 10:10:04,VALID,919.318,VALID,0,VALID,62.2376,VALID,374.755,VALID,26.5464,VALID,20,VALID,0.578516,
2015-09-20, 10:11:04,VALID,919.302,VALID,0,VALID,60.7586,VALID,410.425,VALID,26.7398,VALID,44,VALID,0,
2015-09-20, 10:12:04,VALID,919.277,VALID,0,VALID,62.2452,VALID,769.279,VALID,26.7202,VALID,37,VALID,2.38516,
2015-09-20, 10:13:04,VALID,919.3,VALID,0,VALID,58.3801,VALID,726.947,VALID,26.5054,VALID,81,VALID,2.25234,
2015-09-20, 10:14:04,VALID,919.263,VALID,0,VALID,60.4537,VALID,543.975,VALID,26.2514,VALID,53,VALID,0,
2015-09-20, 10:15:04,VALID,919.202,VALID,0,VALID,60.2479,VALID,395.491,VALID,26.2124,VALID,29,VALID,1.59375,
2015-09-20, 10:16:04,VALID,919.191,VALID,0,VALID,61.9707,VALID,754.452,VALID,26.0757,VALID,48,VALID,2.47813,
2015-09-20, 10:17:04,VALID,919.166,VALID,0,VALID,62.3138,VALID,649.267,VALID,26.1558,VALID,54,VALID,2.47422,
2015-09-20, 10:18:04,VALID,919.17,VALID,0,VALID,63.8232,VALID,731.03,VALID,26.1342,VALID,59,VALID,2.17773,
2015-09-20, 10:19:04,VALID,919.216,VALID,0,VALID,64.1053,VALID,721.575,VALID,26.2319,VALID,46,VALID,0.03125,
2015-09-20, 10:20:04,VALID,919.222,VALID,0,VALID,62.5959,VALID,786.254,VALID,26.5444,VALID,46,VALID,0.709766,
2015-09-20, 10:21:04,VALID,919.272,VALID,0,VALID,60.9035,VALID,406.665,VALID,26.605,VALID,52,VALID,2.58672,
2015-09-20, 10:22:04,VALID,919.213,VALID,0,VALID,60.3241,VALID,581.364,VALID,26.4468,VALID,72,VALID,0.233594,
2015-09-20, 10:23:04,VALID,919.21,VALID,0,VALID,60.2097,VALID,793.883,VALID,26.3902,VALID,60,VALID,2.03594,
2015-09-20, 10:24:04,VALID,919.215,VALID,0,VALID,61.7878,VALID,813.544,VALID,26.2319,VALID,54,VALID,1.65273,
2015-09-20, 10:25:04,VALID,919.166,VALID,0,VALID,61.3609,VALID,803.767,VALID,26.2925,VALID,61,VALID,2.67969,
2015-09-20, 10:26:04,VALID,919.185,VALID,0,VALID,61.216,VALID,855.661,VALID,26.3316,VALID,78,VALID,1.65234,
2015-09-20, 10:27:04,VALID,919.206,VALID,0,VALID,62.9542,VALID,833.206,VALID,26.4468,VALID,63,VALID,1.43047,
2015-09-20, 10:28:04,VALID,919.155,VALID,0,VALID,60.8654,VALID,682.144,VALID,26.6832,VALID,70,VALID,2.2418,
2015-09-20, 10:29:04,VALID,919.186,VALID,0,VALID,61.1779,VALID,707.715,VALID,26.8199,VALID,62,VALID,0.21875,
2015-09-20, 10:30:04,VALID,919.153,VALID,0,VALID,58.7994,VALID,781.419,VALID,26.8785,VALID,57,VALID,1.48789,
2015-09-20, 10:31:04,VALID,919.098,VALID,0,VALID,58.8147,VALID,791.949,VALID,26.7984,VALID,28,VALID,2.93867,
2015-09-20, 10:32:04,VALID,919.09,VALID,0,VALID,57.8389,VALID,730.063,VALID,26.7398,VALID,1,VALID,1.75156,
2015-09-20, 10:33:04,VALID,919.043,VALID,0,VALID,61.0483,VALID,727.914,VALID,26.8199,VALID,43,VALID,3.125,
2015-09-20, 10:34:04,VALID,919.013,VALID,0,VALID,59.5694,VALID,750.154,VALID,26.859,VALID,50,VALID,2.28242,
2015-09-20, 10:35:04,VALID,919.059,VALID,0,VALID,58.7232,VALID,807.313,VALID,26.7202,VALID,45,VALID,1.89883,
2015-09-20, 10:36:04,VALID,919.03,VALID,0,VALID,59.9124,VALID,764.981,VALID,26.6421,VALID,73,VALID,1.48477,
2015-09-20, 10:37:04,VALID,919.033,VALID,0,VALID,60.347,VALID,802.156,VALID,26.8199,VALID,45,VALID,1.81602,
2015-09-20, 10:38:04,VALID,919.006,VALID,0,VALID,58.586,VALID,851.686,VALID,26.8179,VALID,65,VALID,2.82227,
2015-09-20, 10:39:04,VALID,918.912,VALID,0,VALID,58.1819,VALID,870.918,VALID,26.8179,VALID,26,VALID,2.73945,
2015-09-20, 10:40:04,VALID,918.947,VALID,0,VALID,59.5008,VALID,869.306,VALID,26.7788,VALID,46,VALID,2.95,
2015-09-20, 10:41:04,VALID,918.956,VALID,0,VALID,60.8501,VALID,436.533,VALID,26.8004,VALID,28,VALID,1.51836,
2015-09-20, 10:42:04,VALID,918.92,VALID,0,VALID,59.7218,VALID,416.334,VALID,26.8179,VALID,8,VALID,1.4543,
2015-09-20, 10:43:04,VALID,918.857,VALID,0,VALID,59.7828,VALID,818.164,VALID,26.859,VALID,51,VALID,1.86289,
2015-09-20, 10:44:04,VALID,918.896,VALID,0,VALID,56.5429,VALID,706.855,VALID,26.8765,VALID,36,VALID,1.99141,
2015-09-20, 10:45:04,VALID,918.849,VALID,0,VALID,58.6774,VALID,341.663,VALID,26.8765,VALID,18,VALID,3.15547,
2015-09-20, 10:46:04,VALID,918.891,VALID,0,VALID,58.1743,VALID,750.799,VALID,26.9546,VALID,134,VALID,2.26445,
2015-09-20, 10:47:04,VALID,918.924,VALID,0,VALID,59.1043,VALID,642.713,VALID,26.8374,VALID,115,VALID,2.1582,
2015-09-20, 10:48:04,VALID,918.945,VALID,0,VALID,56.9317,VALID,809.139,VALID,26.605,VALID,122,VALID,2.38633,
2015-09-20, 10:49:04,VALID,918.931,VALID,0,VALID,58.9747,VALID,715.988,VALID,26.5249,VALID,133,VALID,2.51094,
2015-09-20, 10:50:04,VALID,918.896,VALID,0,VALID,59.7905,VALID,755.311,VALID,26.5054,VALID,44,VALID,1.29297,
2015-09-20, 10:51:04,VALID,918.872,VALID,0,VALID,58.929,VALID,774.006,VALID,26.7182,VALID,41,VALID,0.100781,
2015-09-20, 10:52:04,VALID,918.816,VALID,0,VALID,60.4994,VALID,830.95,VALID,26.8179,VALID,90,VALID,3.13789,
2015-09-20, 10:53:04,VALID,918.798,VALID,0,VALID,57.4119,VALID,829.553,VALID,26.8765,VALID,151,VALID,3.00703,
2015-09-20, 10:54:04,VALID,918.799,VALID,0,VALID,57.6559,VALID,451.79,VALID,26.896,VALID,86,VALID,1.72891,
2015-09-20, 10:55:04,VALID,918.73,VALID,0,VALID,61.0178,VALID,747.683,VALID,26.7788,VALID,83,VALID,2.30195,
2015-09-20, 10:56:04,VALID,918.727,VALID,0,VALID,60.4918,VALID,732.211,VALID,26.7202,VALID,147,VALID,1.32383,
2015-09-20, 10:57:04,VALID,918.71,VALID,0,VALID,61.2846,VALID,453.831,VALID,26.6616,VALID,99,VALID,2.44727,
2015-09-20, 10:58:04,VALID,918.64,VALID,0,VALID,59.9505,VALID,835.355,VALID,26.8179,VALID,35,VALID,1.86797,
2015-09-20, 10:59:04,VALID,918.713,VALID,0,VALID,58.586,VALID,843.413,VALID,26.9546,VALID,135,VALID,3.25391,
2015-09-20, 11:00:04,VALID,918.695,VALID,0,VALID,59.051,VALID,415.582,VALID,26.9156,VALID,152,VALID,1.28164,
2015-09-20, 11:01:04,VALID,918.68,VALID,0,VALID,58.6546,VALID,719.104,VALID,26.896,VALID,131,VALID,3.07227,
2015-09-20, 11:02:04,VALID,918.587,VALID,0,VALID,58.1743,VALID,364.763,VALID,26.7202,VALID,112,VALID,1.12031,